Flag for Finland Weather past 2 weeks in Tampere, Finland

Now
55 °F

Passing clouds.


Feels Like: 54 °F
Forecast: 51 / 64 °F
Wind: 6 mph from South

Location: Tampere / Pirkkala

Current Time: Aug 21, 2014 at 6:18:22 AM

Latest Report: Aug 21, 2014 at 5:50 AM


Visibility: N/A

Pressure: 29.53 "Hg

Humidity: 94%

Dew point: 54 °F

Location of TampereLocation

Historic Weather in Tampere — Graph

°F

Tampere temperature yesterday

Maximum temperature yesterday: 61 °F (at 10:50 AM)
Minimum temperature yesterday: 52 °F (at 2:50 AM)
Average temperature yesterday: 55 °F

Past Weeks' High & Low Weather Summary

 TemperatureHumidityPressure
High84 °F (Aug 6, 2:50 PM)100% (Aug 7, 9:50 PM)30.09 "Hg (Aug 7, 9:50 PM)
Low45 °F (Aug 17, 5:50 AM)30% (Aug 6, 4:20 PM)29.39 "Hg (Aug 19, 10:20 AM)
Average62 °F78%29.70 "Hg
* Reported Aug 6 5:20 AM — Aug 21 5:20 AM, Tampere, Weather by CustomWeather, © 2014

Note: Actual official high and low records may vary slightly from our data, if they occured in-between our weather recording intervals... More about our weather records

Advertising

Tampere weather history for previous 24 hours

 ConditionsComfort  
Time TempWeatherWind HumidityBarometerVisibility
5:20 AM
Aug 21
55 °FPartly cloudy.7 mph94%29.50 "HgN/A
4:50 AM55 °FOvercast.6 mph94%29.50 "HgN/A
4:20 AM55 °FPartly cloudy.7 mph94%29.50 "HgN/A
3:50 AM55 °FOvercast.7 mph94%29.50 "HgN/A
3:20 AM54 °FPassing clouds.7 mph100%29.50 "HgN/A
2:50 AM54 °FMostly cloudy.6 mph100%29.47 "HgN/A
2:20 AM54 °FSprinkles. Passing clouds.6 mph100%29.47 "HgN/A
1:50 AM54 °FMostly cloudy.6 mph94%29.47 "HgN/A
1:20 AM54 °FPartly cloudy.6 mph94%29.47 "HgN/A
12:50 AM54 °FMostly cloudy.6 mph94%29.47 "HgN/A
12:20 AM54 °FPartly cloudy.6 mph94%29.47 "HgN/A
11:50 PM
Aug 20
54 °FMostly cloudy.7 mph94%29.47 "HgN/A
11:20 PM54 °FPartly cloudy.7 mph94%29.47 "HgN/A
10:50 PM54 °FPartly cloudy.7 mph100%29.47 "HgN/A
10:20 PM54 °FPartly cloudy.7 mph94%29.47 "HgN/A
9:50 PM54 °FPartly sunny.6 mph94%29.50 "HgN/A
9:20 PM54 °FSunny.7 mph94%29.50 "Hg10 mi
8:50 PM55 °FSprinkles. Partly sunny.9 mph88%29.50 "HgN/A
8:20 PM55 °FScattered showers. Broken clouds.7 mph94%29.50 "HgN/A
7:50 PM55 °FSunny.7 mph94%29.50 "Hg10 mi
7:20 PM55 °FPartly sunny.7 mph94%29.50 "HgN/A
6:50 PM55 °FPartly sunny.7 mph94%29.50 "HgN/A
6:20 PM57 °FPartly sunny.8 mph88%29.50 "HgN/A
5:50 PM57 °FBroken clouds.10 mph88%29.50 "HgN/A
5:20 PM59 °FPassing clouds.8 mph82%29.50 "HgN/A
4:50 PM55 °FScattered showers. Partly sunny.5 mph94%29.53 "HgN/A
4:20 PM55 °FRain showers. Partly sunny.10 mph88%29.53 "HgN/A
3:50 PM57 °FScattered showers. Broken clouds.8 mph94%29.53 "HgN/A
3:20 PM57 °FPartly sunny.7 mph94%29.53 "HgN/A
2:50 PM57 °FSprinkles. Partly sunny.9 mph94%29.56 "HgN/A
2:20 PM59 °FSprinkles. Broken clouds.14 mph77%29.56 "HgN/A
1:50 PM59 °FBroken clouds.13 mph77%29.56 "HgN/A
1:20 PM57 °FSprinkles. Partly sunny.10 mph88%29.56 "HgN/A
12:50 PM59 °FLight rain. Partly sunny.13 mph77%29.56 "HgN/A
12:20 PM61 °FPartly sunny.13 mph72%29.56 "HgN/A
11:50 AM61 °FPartly sunny.13 mph72%29.53 "HgN/A
11:20 AM61 °FScattered clouds.14 mph77%29.53 "HgN/A
10:50 AM61 °FScattered clouds.10 mph77%29.53 "HgN/A
10:20 AM57 °FScattered clouds.9 mph88%29.53 "HgN/A
9:50 AM54 °FLight rain. Scattered clouds.10 mph94%29.56 "HgN/A
9:20 AM54 °FSprinkles. Scattered clouds.10 mph94%29.53 "HgN/A
8:50 AM54 °FScattered clouds.9 mph88%29.53 "HgN/A
8:20 AM54 °FSprinkles. Scattered clouds.12 mph88%29.53 "HgN/A
7:50 AM54 °FSprinkles. Broken clouds.10 mph88%29.53 "HgN/A
7:20 AM54 °FPartly sunny.9 mph88%29.53 "HgN/A
6:50 AM52 °FPassing clouds.9 mph88%29.53 "HgN/A
6:20 AM54 °FPassing clouds.9 mph88%29.53 "HgN/A
Weather by CustomWeather, © 2014

See weather overviewHow to use our weather pages